KLM060 LFOH-LEVC

Flight info

Callsign KLM060
Flight time 1h 40m
Altitude 37000
Route BUSUK UT176 LGL UN859 SOPIL DCT POKET DCT PERDU N862 MLA N860 SAURA
Aircraft A21N/M-SDE2E3FGHIRWXY/LB1

Departure

Time 2026-05-07 12:17
Airport Le Havre-Octeville Airport (LFOH)

Arrival

Time 2026-05-07 13:58
Airport Valencia Airport (LEVC)
Time Latitude Longitude Altitude Speed Heading
2026-05-07 12:04 49.53292 0.09479 291 ft 0 kts 152°
2026-05-07 12:12 49.53291 0.09480 291 ft 0 kts 156°
2026-05-07 12:12 49.53285 0.09479 291 ft 1 kts 192°
2026-05-07 12:12 49.53276 0.09470 291 ft 1 kts 225°
2026-05-07 12:12 49.53251 0.09421 292 ft 6 kts 232°
2026-05-07 12:13 49.53234 0.09363 293 ft 5 kts 264°
2026-05-07 12:13 49.53233 0.09308 294 ft 5 kts 268°
2026-05-07 12:13 49.53230 0.09213 294 ft 17 kts 264°
2026-05-07 12:13 49.53270 0.09027 296 ft 17 kts 308°
2026-05-07 12:14 49.53339 0.08890 297 ft 15 kts 304°
2026-05-07 12:14 49.53326 0.08744 299 ft 15 kts 234°
2026-05-07 12:14 49.53235 0.08599 298 ft 22 kts 223°
2026-05-07 12:14 49.53108 0.08410 302 ft 27 kts 224°
2026-05-07 12:15 49.52978 0.08222 306 ft 24 kts 225°
2026-05-07 12:15 49.52866 0.08051 310 ft 21 kts 225°
2026-05-07 12:15 49.52763 0.07921 312 ft 16 kts 221°
2026-05-07 12:15 49.52691 0.07853 313 ft 9 kts 195°
2026-05-07 12:16 49.52688 0.07823 313 ft 5 kts 360°
2026-05-07 12:16 49.52696 0.07828 313 ft 0 kts 27°
2026-05-07 12:16 49.52710 0.07842 313 ft 8 kts 36°
2026-05-07 12:16 49.52998 0.08235 306 ft 100 kts 44°
2026-05-07 12:17 49.53693 0.09234 356 ft 166 kts 42°
2026-05-07 12:17 49.54580 0.10487 1014 ft 179 kts 42°
2026-05-07 12:17 49.55450 0.11767 2072 ft 174 kts 45°
2026-05-07 12:17 49.56051 0.13320 2757 ft 181 kts 81°
2026-05-07 12:18 49.55852 0.15276 3295 ft 197 kts 116°
2026-05-07 12:18 49.54885 0.16824 3814 ft 216 kts 150°
2026-05-07 12:18 49.53344 0.17217 4245 ft 242 kts 190°
2026-05-07 12:18 49.51761 0.16139 4797 ft 262 kts 210°
2026-05-07 12:19 49.50065 0.14971 5529 ft 273 kts 188°
2026-05-07 12:19 49.48234 0.15302 6437 ft 274 kts 154°
2026-05-07 12:19 49.46721 0.16998 7371 ft 275 kts 137°
2026-05-07 12:19 49.45287 0.18938 8215 ft 280 kts 140°
2026-05-07 12:20 49.43739 0.20797 9076 ft 285 kts 144°
2026-05-07 12:20 49.42110 0.22531 9930 ft 288 kts 147°
2026-05-07 12:20 49.40424 0.24181 10667 ft 295 kts 149°
2026-05-07 12:20 49.38638 0.25835 11117 ft 312 kts 150°
2026-05-07 12:21 49.36698 0.27573 11533 ft 330 kts 150°
2026-05-07 12:21 49.34658 0.29366 11960 ft 346 kts 151°
2026-05-07 12:21 49.32542 0.31208 12641 ft 353 kts 151°
2026-05-07 12:21 49.30410 0.33055 13432 ft 356 kts 151°
2026-05-07 12:22 49.28254 0.34917 14213 ft 359 kts 151°
2026-05-07 12:22 49.26099 0.36773 14926 ft 363 kts 152°
2026-05-07 12:22 49.23882 0.38681 15645 ft 367 kts 152°
2026-05-07 12:22 49.21654 0.40594 16336 ft 371 kts 152°
2026-05-07 12:23 49.19392 0.42533 17004 ft 375 kts 152°
2026-05-07 12:23 49.17112 0.44487 17682 ft 379 kts 152°
2026-05-07 12:23 49.14812 0.46455 18333 ft 383 kts 151°
2026-05-07 12:23 49.12500 0.48433 18948 ft 387 kts 151°
2026-05-07 12:24 49.10142 0.50447 19584 ft 390 kts 152°
2026-05-07 12:24 49.07774 0.52469 20205 ft 393 kts 152°
2026-05-07 12:24 49.05395 0.54497 20810 ft 397 kts 152°
2026-05-07 12:24 49.02991 0.56544 21404 ft 400 kts 151°
2026-05-07 12:25 49.00552 0.58619 21978 ft 403 kts 151°
2026-05-07 12:25 48.98108 0.60695 22539 ft 406 kts 151°
2026-05-07 12:25 48.95657 0.62774 23084 ft 410 kts 151°
2026-05-07 12:25 48.93139 0.64887 23618 ft 412 kts 153°
2026-05-07 12:26 48.90433 0.66264 24060 ft 414 kts 173°
2026-05-07 12:26 48.87560 0.66202 24558 ft 413 kts 191°
2026-05-07 12:26 48.84862 0.64777 25033 ft 413 kts 210°
2026-05-07 12:26 48.82582 0.62179 25491 ft 413 kts 224°
2026-05-07 12:27 48.80489 0.59142 25946 ft 416 kts 223°
2026-05-07 12:27 48.78122 0.56692 26264 ft 422 kts 206°
2026-05-07 12:27 48.75278 0.55504 26663 ft 427 kts 188°
2026-05-07 12:27 48.72313 0.55697 27052 ft 432 kts 171°
2026-05-07 12:28 48.69422 0.56800 27467 ft 434 kts 167°
2026-05-07 12:28 48.66480 0.57977 27821 ft 437 kts 167°
2026-05-07 12:28 48.63570 0.59132 28163 ft 440 kts 167°
2026-05-07 12:28 48.60595 0.60301 28515 ft 442 kts 167°
2026-05-07 12:29 48.57603 0.61465 28864 ft 444 kts 167°
2026-05-07 12:29 48.54626 0.62617 29207 ft 445 kts 167°
2026-05-07 12:29 48.51626 0.63779 29662 ft 444 kts 167°
2026-05-07 12:29 48.48679 0.64963 30149 ft 442 kts 167°
2026-05-07 12:30 48.45739 0.66164 30601 ft 441 kts 167°
2026-05-07 12:30 48.42763 0.67382 31024 ft 440 kts 167°
2026-05-07 12:30 48.39823 0.68582 31419 ft 439 kts 167°
2026-05-07 12:30 48.36877 0.69780 31805 ft 438 kts 167°
2026-05-07 12:31 48.33976 0.70957 32172 ft 438 kts 167°
2026-05-07 12:31 48.31057 0.72139 32523 ft 437 kts 167°
2026-05-07 12:31 48.28124 0.73325 32869 ft 436 kts 167°
2026-05-07 12:31 48.25172 0.74516 33207 ft 436 kts 167°
2026-05-07 12:32 48.22275 0.75666 33534 ft 435 kts 167°
2026-05-07 12:32 48.19374 0.76806 33856 ft 434 kts 167°
2026-05-07 12:32 48.16456 0.77951 34162 ft 433 kts 167°
2026-05-07 12:32 48.13526 0.79099 34462 ft 433 kts 167°
2026-05-07 12:33 48.07768 0.81357 35015 ft 431 kts 167°
2026-05-07 12:33 48.04848 0.82501 35201 ft 431 kts 168°
2026-05-07 12:33 48.01965 0.83629 35348 ft 431 kts 167°
2026-05-07 12:34 47.99085 0.84754 35463 ft 432 kts 167°
2026-05-07 12:34 47.96155 0.85897 35578 ft 433 kts 167°
2026-05-07 12:34 47.93265 0.87025 35689 ft 434 kts 167°
2026-05-07 12:34 47.90348 0.88163 35794 ft 434 kts 167°
2026-05-07 12:35 47.87404 0.89309 35901 ft 435 kts 168°
2026-05-07 12:35 47.84502 0.90436 36002 ft 436 kts 167°
2026-05-07 12:35 47.78642 0.92707 36204 ft 437 kts 168°
2026-05-07 12:36 47.75692 0.93847 36316 ft 438 kts 168°
2026-05-07 12:36 47.72757 0.94982 36453 ft 438 kts 168°
2026-05-07 12:36 47.69837 0.96110 36579 ft 439 kts 168°
2026-05-07 12:36 47.66856 0.97261 36703 ft 440 kts 168°
2026-05-07 12:37 47.63913 0.98396 36823 ft 441 kts 168°
2026-05-07 12:37 47.60959 0.99533 36943 ft 442 kts 168°
2026-05-07 12:37 47.55001 1.01824 36989 ft 443 kts 168°
2026-05-07 12:38 47.49051 1.04090 36993 ft 443 kts 169°
2026-05-07 12:38 47.43042 1.05696 36993 ft 440 kts 175°
2026-05-07 12:39 47.36959 1.06294 36996 ft 438 kts 182°
2026-05-07 12:39 47.30873 1.06168 37002 ft 437 kts 183°
2026-05-07 12:40 47.24826 1.06032 37004 ft 438 kts 183°
2026-05-07 12:40 47.18721 1.05895 37002 ft 438 kts 183°
2026-05-07 12:41 47.12616 1.05754 37004 ft 437 kts 183°
2026-05-07 12:41 47.06533 1.05614 37001 ft 437 kts 184°
2026-05-07 12:42 47.00499 1.04983 36996 ft 435 kts 189°
2026-05-07 12:42 46.94550 1.03614 36987 ft 434 kts 191°
2026-05-07 12:43 46.88587 1.02213 36983 ft 433 kts 191°
2026-05-07 12:43 46.82665 1.00824 36981 ft 433 kts 192°
2026-05-07 12:44 46.76739 0.99434 36980 ft 433 kts 192°
2026-05-07 12:44 46.70808 0.98044 36980 ft 433 kts 192°
2026-05-07 12:45 46.64874 0.96658 36978 ft 432 kts 192°
2026-05-07 12:45 46.58957 0.95279 36974 ft 432 kts 192°
2026-05-07 12:46 46.53051 0.93904 36975 ft 432 kts 192°
2026-05-07 12:46 46.47130 0.92530 36976 ft 432 kts 192°
2026-05-07 12:47 46.41188 0.91153 36972 ft 432 kts 192°
2026-05-07 12:47 46.35283 0.89788 36976 ft 431 kts 192°
2026-05-07 12:48 46.29394 0.88431 36977 ft 431 kts 192°
2026-05-07 12:48 46.23458 0.87065 36971 ft 431 kts 192°
2026-05-07 12:49 46.17558 0.85711 36968 ft 431 kts 192°
2026-05-07 12:49 46.11663 0.84360 36970 ft 430 kts 192°
2026-05-07 12:50 46.05759 0.83010 36972 ft 430 kts 192°
2026-05-07 12:50 45.99873 0.81666 36967 ft 430 kts 192°
2026-05-07 12:51 45.93973 0.80324 36964 ft 430 kts 192°
2026-05-07 12:51 45.88081 0.78985 36968 ft 429 kts 192°
2026-05-07 12:52 45.82191 0.77649 36970 ft 429 kts 192°
2026-05-07 12:52 45.76329 0.76323 36967 ft 429 kts 192°
2026-05-07 12:53 45.70440 0.74995 36964 ft 429 kts 192°
2026-05-07 12:53 45.64554 0.73670 36961 ft 428 kts 192°
2026-05-07 12:54 45.58678 0.72349 36966 ft 429 kts 192°
2026-05-07 12:54 45.52813 0.71033 36961 ft 428 kts 192°
2026-05-07 12:55 45.46982 0.69729 36962 ft 427 kts 192°
2026-05-07 12:55 45.41110 0.68418 36963 ft 427 kts 192°
2026-05-07 12:56 45.35255 0.67113 36959 ft 427 kts 192°
2026-05-07 12:56 45.29388 0.65809 36958 ft 426 kts 192°
2026-05-07 12:57 45.23554 0.64514 36957 ft 426 kts 192°
2026-05-07 12:57 45.17697 0.63218 36958 ft 426 kts 192°
2026-05-07 12:58 45.11868 0.61931 36955 ft 426 kts 192°
2026-05-07 12:58 45.06000 0.60707 36951 ft 426 kts 191°
2026-05-07 12:59 45.00176 0.59529 36949 ft 425 kts 191°
2026-05-07 12:59 44.94312 0.58342 36952 ft 425 kts 191°
2026-05-07 13:00 44.88450 0.57157 36955 ft 425 kts 191°
2026-05-07 13:00 44.82645 0.55983 36959 ft 425 kts 191°
2026-05-07 13:01 44.76792 0.54801 36957 ft 425 kts 191°
2026-05-07 13:01 44.70972 0.53627 36956 ft 425 kts 191°
2026-05-07 13:02 44.65133 0.52453 36954 ft 425 kts 191°
2026-05-07 13:02 44.59288 0.51280 36948 ft 424 kts 191°
2026-05-07 13:03 44.53448 0.50110 36938 ft 424 kts 191°
2026-05-07 13:03 44.47644 0.48951 36946 ft 424 kts 191°
2026-05-07 13:04 44.41817 0.47789 36942 ft 424 kts 191°
2026-05-07 13:04 44.35971 0.46626 36946 ft 424 kts 191°
2026-05-07 13:05 44.30172 0.45474 36944 ft 424 kts 191°
2026-05-07 13:05 44.24326 0.44315 36950 ft 423 kts 191°
2026-05-07 13:06 44.18492 0.43160 36948 ft 423 kts 191°
2026-05-07 13:06 44.12709 0.42018 36949 ft 423 kts 191°
2026-05-07 13:07 44.06869 0.40867 36949 ft 423 kts 190°
2026-05-07 13:07 44.01052 0.39724 36947 ft 423 kts 191°
2026-05-07 13:08 43.95227 0.38580 36944 ft 423 kts 190°
2026-05-07 13:08 43.89410 0.37441 36941 ft 423 kts 190°
2026-05-07 13:09 43.83591 0.36303 36945 ft 423 kts 190°
2026-05-07 13:09 43.77809 0.35175 36941 ft 423 kts 191°
2026-05-07 13:10 43.71977 0.34039 36941 ft 422 kts 190°
2026-05-07 13:10 43.66200 0.32916 36934 ft 422 kts 190°
2026-05-07 13:11 43.60365 0.31784 36933 ft 422 kts 190°
2026-05-07 13:11 43.54578 0.30664 36921 ft 421 kts 190°
2026-05-07 13:12 43.48766 0.29541 36922 ft 421 kts 190°
2026-05-07 13:12 43.43010 0.28431 36926 ft 421 kts 190°
2026-05-07 13:13 43.37191 0.27311 36928 ft 420 kts 189°
2026-05-07 13:13 43.31443 0.26205 36929 ft 420 kts 190°
2026-05-07 13:14 43.25631 0.25092 36931 ft 420 kts 190°
2026-05-07 13:14 43.19861 0.23988 36940 ft 420 kts 190°
2026-05-07 13:15 43.14112 0.22889 36944 ft 420 kts 190°
2026-05-07 13:15 43.08321 0.21785 36942 ft 420 kts 189°
2026-05-07 13:16 43.02561 0.20690 36939 ft 419 kts 190°
2026-05-07 13:16 42.96798 0.19595 36938 ft 419 kts 190°
2026-05-07 13:17 42.91003 0.18496 36944 ft 419 kts 189°
2026-05-07 13:17 42.85240 0.17408 36933 ft 418 kts 190°
2026-05-07 13:18 42.79492 0.16323 36915 ft 418 kts 190°
2026-05-07 13:18 42.73750 0.15388 36915 ft 418 kts 186°
2026-05-07 13:19 42.67957 0.15194 36929 ft 419 kts 182°
2026-05-07 13:19 42.62093 0.15241 36931 ft 419 kts 182°
2026-05-07 13:20 42.56281 0.15287 36930 ft 420 kts 182°
2026-05-07 13:20 42.50468 0.15337 36948 ft 420 kts 182°
2026-05-07 13:21 42.44617 0.15390 36949 ft 420 kts 182°
2026-05-07 13:21 42.38802 0.15442 36950 ft 419 kts 182°
2026-05-07 13:22 42.32981 0.15494 36948 ft 419 kts 182°
2026-05-07 13:22 42.27177 0.15547 36946 ft 418 kts 182°
2026-05-07 13:23 42.21348 0.15600 36947 ft 418 kts 182°
2026-05-07 13:23 42.15550 0.15654 36940 ft 417 kts 182°
2026-05-07 13:24 42.09761 0.15704 36932 ft 417 kts 182°
2026-05-07 13:24 42.03983 0.15755 36926 ft 417 kts 182°
2026-05-07 13:25 41.98169 0.15807 36928 ft 417 kts 182°
2026-05-07 13:25 41.92395 0.15857 36921 ft 417 kts 182°
2026-05-07 13:26 41.86592 0.15909 36928 ft 416 kts 182°
2026-05-07 13:26 41.80853 0.15959 36924 ft 415 kts 182°
2026-05-07 13:27 41.75090 0.16008 36921 ft 416 kts 182°
2026-05-07 13:27 41.69313 0.16057 36918 ft 415 kts 182°
2026-05-07 13:28 41.63551 0.16107 36921 ft 415 kts 182°
2026-05-07 13:28 41.57784 0.16157 36922 ft 415 kts 183°
2026-05-07 13:29 41.52020 0.16207 36920 ft 415 kts 183°
2026-05-07 13:29 41.46245 0.16257 36920 ft 415 kts 183°
2026-05-07 13:30 41.40512 0.16306 36914 ft 414 kts 183°
2026-05-07 13:30 41.34736 0.16357 36910 ft 414 kts 183°
2026-05-07 13:31 41.28994 0.16405 36914 ft 413 kts 183°
2026-05-07 13:31 41.23266 0.16456 36910 ft 413 kts 183°
2026-05-07 13:32 41.17568 0.16331 36915 ft 410 kts 186°
2026-05-07 13:32 41.11914 0.15467 36922 ft 407 kts 192°
2026-05-07 13:33 41.09153 0.14757 36803 ft 407 kts 195°
2026-05-07 13:33 41.06412 0.13854 36557 ft 404 kts 198°
2026-05-07 13:33 41.03730 0.12795 36317 ft 399 kts 199°
2026-05-07 13:33 41.01110 0.11745 36088 ft 396 kts 199°
2026-05-07 13:34 40.98497 0.10700 35902 ft 392 kts 199°
2026-05-07 13:34 40.93308 0.08621 35557 ft 389 kts 198°
2026-05-07 13:34 40.90731 0.07587 35371 ft 388 kts 199°
2026-05-07 13:35 40.88137 0.06545 35077 ft 387 kts 198°
2026-05-07 13:35 40.85583 0.05521 34633 ft 387 kts 198°
2026-05-07 13:35 40.83012 0.04489 33998 ft 388 kts 198°
2026-05-07 13:35 40.80439 0.03457 33341 ft 389 kts 198°
2026-05-07 13:36 40.77857 0.02425 32693 ft 389 kts 198°
2026-05-07 13:36 40.75255 0.01385 32034 ft 390 kts 198°
2026-05-07 13:36 40.72659 0.00346 31363 ft 391 kts 198°
2026-05-07 13:36 40.70081 -0.00683 30685 ft 392 kts 198°
2026-05-07 13:37 40.67452 -0.01733 29919 ft 394 kts 198°
2026-05-07 13:37 40.64848 -0.02770 29118 ft 397 kts 198°
2026-05-07 13:37 40.62202 -0.03824 28400 ft 397 kts 198°
2026-05-07 13:37 40.59571 -0.04867 27824 ft 395 kts 198°
2026-05-07 13:38 40.56964 -0.05903 27235 ft 393 kts 198°
2026-05-07 13:38 40.54362 -0.06935 26657 ft 390 kts 198°
2026-05-07 13:38 40.51786 -0.07959 26085 ft 388 kts 198°
2026-05-07 13:38 40.49222 -0.08976 25529 ft 386 kts 198°
2026-05-07 13:39 40.46658 -0.09993 24975 ft 384 kts 198°
2026-05-07 13:39 40.44111 -0.11002 24398 ft 383 kts 198°
2026-05-07 13:39 40.41535 -0.12022 23806 ft 383 kts 198°
2026-05-07 13:39 40.39023 -0.13017 23219 ft 382 kts 198°
2026-05-07 13:40 40.36486 -0.14021 22674 ft 381 kts 198°
2026-05-07 13:40 40.33949 -0.15024 22142 ft 379 kts 198°
2026-05-07 13:40 40.31446 -0.16012 21622 ft 377 kts 198°
2026-05-07 13:40 40.28949 -0.16996 21115 ft 374 kts 198°
2026-05-07 13:41 40.26462 -0.17976 20613 ft 372 kts 197°
2026-05-07 13:41 40.23996 -0.18962 20105 ft 370 kts 198°
2026-05-07 13:41 40.21559 -0.19964 19590 ft 368 kts 198°
2026-05-07 13:41 40.19143 -0.20960 19095 ft 366 kts 198°
2026-05-07 13:42 40.16720 -0.21957 18593 ft 364 kts 198°
2026-05-07 13:42 40.14301 -0.22951 18083 ft 363 kts 197°
2026-05-07 13:42 40.11917 -0.23927 17564 ft 362 kts 197°
2026-05-07 13:42 40.09518 -0.24909 17071 ft 360 kts 197°
2026-05-07 13:43 40.07158 -0.25873 16580 ft 358 kts 197°
2026-05-07 13:43 40.04772 -0.26848 16070 ft 357 kts 197°
2026-05-07 13:43 40.02412 -0.27811 15578 ft 354 kts 197°
2026-05-07 13:43 40.00082 -0.28760 15106 ft 352 kts 197°
2026-05-07 13:44 39.97731 -0.29657 14615 ft 351 kts 196°
2026-05-07 13:44 39.95394 -0.30507 14130 ft 349 kts 196°
2026-05-07 13:44 39.93053 -0.31356 13667 ft 348 kts 196°
2026-05-07 13:44 39.90743 -0.32198 13171 ft 347 kts 196°
2026-05-07 13:45 39.88436 -0.33041 12688 ft 346 kts 195°
2026-05-07 13:45 39.86108 -0.33893 12180 ft 345 kts 195°
2026-05-07 13:45 39.83822 -0.34729 11755 ft 340 kts 195°
2026-05-07 13:45 39.81581 -0.35550 11456 ft 332 kts 195°
2026-05-07 13:46 39.79403 -0.36405 11160 ft 325 kts 201°
2026-05-07 13:46 39.77515 -0.37995 10634 ft 326 kts 224°
2026-05-07 13:46 39.76269 -0.40450 10253 ft 323 kts 248°
2026-05-07 13:46 39.75912 -0.43221 10150 ft 311 kts 271°
2026-05-07 13:47 39.76307 -0.45930 10064 ft 298 kts 288°
2026-05-07 13:47 39.76971 -0.48417 9944 ft 286 kts 287°
2026-05-07 13:47 39.77460 -0.50881 9636 ft 285 kts 279°
2026-05-07 13:47 39.77660 -0.53425 9248 ft 284 kts 270°
2026-05-07 13:48 39.77585 -0.55993 8889 ft 282 kts 263°
2026-05-07 13:48 39.77290 -0.58474 8548 ft 281 kts 257°
2026-05-07 13:48 39.76808 -0.60921 8192 ft 279 kts 252°
2026-05-07 13:48 39.76170 -0.63304 7853 ft 277 kts 247°
2026-05-07 13:49 39.75407 -0.65573 7514 ft 276 kts 242°
2026-05-07 13:49 39.74524 -0.67768 7177 ft 274 kts 238°
2026-05-07 13:49 39.73536 -0.69860 6846 ft 272 kts 234°
2026-05-07 13:49 39.72439 -0.71872 6525 ft 270 kts 230°
2026-05-07 13:50 39.71276 -0.73737 6208 ft 268 kts 227°
2026-05-07 13:50 39.70011 -0.75523 5883 ft 266 kts 223°
2026-05-07 13:50 39.68695 -0.77167 5575 ft 263 kts 219°
2026-05-07 13:50 39.67302 -0.78700 5279 ft 261 kts 216°
2026-05-07 13:51 39.65738 -0.79801 4971 ft 252 kts 187°
2026-05-07 13:51 39.64090 -0.79656 4953 ft 229 kts 158°
2026-05-07 13:51 39.62769 -0.78694 4942 ft 210 kts 136°
2026-05-07 13:51 39.61713 -0.77408 4895 ft 210 kts 134°
2026-05-07 13:52 39.60665 -0.76097 4474 ft 210 kts 134°
2026-05-07 13:52 39.59615 -0.74794 4066 ft 207 kts 133°
2026-05-07 13:52 39.58689 -0.73410 3714 ft 203 kts 123°
2026-05-07 13:52 39.57975 -0.71931 3616 ft 183 kts 116°
2026-05-07 13:53 39.57434 -0.70538 3461 ft 165 kts 114°
2026-05-07 13:53 39.56965 -0.69264 3334 ft 147 kts 113°
2026-05-07 13:53 39.56527 -0.68084 3203 ft 145 kts 113°
2026-05-07 13:53 39.56088 -0.66912 3006 ft 144 kts 114°
2026-05-07 13:54 39.55644 -0.65742 2817 ft 145 kts 114°
2026-05-07 13:54 39.55196 -0.64567 2625 ft 145 kts 114°
2026-05-07 13:54 39.54748 -0.63398 2437 ft 145 kts 114°
2026-05-07 13:54 39.54308 -0.62250 2282 ft 142 kts 113°
2026-05-07 13:55 39.53883 -0.61145 2074 ft 134 kts 112°
2026-05-07 13:55 39.53468 -0.60061 1900 ft 132 kts 112°
2026-05-07 13:55 39.53063 -0.59000 1720 ft 132 kts 114°
2026-05-07 13:55 39.52660 -0.57944 1557 ft 132 kts 114°
2026-05-07 13:56 39.52255 -0.56883 1384 ft 131 kts 113°
2026-05-07 13:56 39.51846 -0.55815 1212 ft 132 kts 113°
2026-05-07 13:56 39.51440 -0.54751 1053 ft 133 kts 114°
2026-05-07 13:56 39.51033 -0.53683 872 ft 131 kts 115°
2026-05-07 13:57 39.50627 -0.52617 695 ft 134 kts 112°
2026-05-07 13:57 39.50210 -0.51523 529 ft 133 kts 115°
2026-05-07 13:57 39.49804 -0.50461 348 ft 132 kts 114°
2026-05-07 13:57 39.49402 -0.49398 230 ft 117 kts 116°
2026-05-07 13:58 39.49179 -0.48786 221 ft 35 kts 116°
2026-05-07 13:58 39.49103 -0.48615 215 ft 20 kts 117°
2026-05-07 13:58 39.49089 -0.48534 214 ft 2 kts 52°
2026-05-07 13:58 39.49181 -0.48476 212 ft 19 kts 35°
2026-05-07 13:59 39.49287 -0.48358 207 ft 20 kts 32°
2026-05-07 13:59 39.49310 -0.48338 207 ft 0 kts 32°